| time (UTC) | temp F | wind direction | speed MPH | gust MPH | rain 1hr in | rain 24hr in | rain mn in | humidity % | barometer mb |
| 20260902171705 | 76 | 14 | 0.0 | 1.0 | 0.00 | 0.00 | 0.00 | 51 | 1022.8 |
| 20260902170706 | 77 | 32 | 0.0 | 1.0 | 0.00 | 0.00 | 0.00 | 50 | 1022.6 |
| 20260902165705 | 78 | 57 | 0.0 | 1.0 | 0.00 | 0.00 | 0.00 | 48 | 1022.8 |
| 20260902165204 | 78 | 353 | 0.0 | 2.0 | 0.00 | 0.00 | 0.00 | 48 | 1022.7 |
| 20260902164705 | 78 | 337 | 1.0 | 2.0 | 0.00 | 0.00 | 0.00 | 48 | 1022.9 |
| 20260902164206 | 78 | 326 | 1.0 | 2.0 | 0.00 | 0.00 | 0.00 | 48 | 1023.1 |
| 20260902163704 | 78 | 337 | 1.0 | 2.0 | 0.00 | 0.00 | 0.00 | 48 | 1023.0 |
| 20260902163204 | 78 | 322 | 1.0 | 3.0 | 0.00 | 0.00 | 0.00 | 47 | 1023.0 |
| 20260902162705 | 78 | 334 | 2.0 | 2.0 | 0.00 | 0.00 | 0.00 | 47 | 1022.9 |
| 20260902161204 | 79 | 349 | 1.0 | 2.0 | 0.00 | 0.00 | 0.00 | 45 | 1023.0 |
| 20260902160705 | 79 | 345 | 2.0 | 2.0 | 0.00 | 0.00 | 0.00 | 44 | 1023.0 |
| 20260902160205 | 79 | 315 | 2.0 | 3.0 | 0.00 | 0.00 | 0.00 | 43 | 1023.1 |
| 20260902155705 | 80 | 339 | 2.0 | 3.0 | 0.00 | 0.00 | 0.00 | 42 | 1023.0 |
| 20260902155205 | 80 | 344 | 1.0 | 2.0 | 0.00 | 0.00 | 0.00 | 42 | 1022.8 |
| 20260902154706 | 80 | 21 | 0.0 | 2.0 | 0.00 | 0.00 | 0.00 | 41 | 1022.7 |
| 20260902154205 | 81 | 316 | 1.0 | 3.0 | 0.00 | 0.00 | 0.00 | 40 | 1022.7 |
| 20260902153705 | 81 | 334 | 2.0 | 5.0 | 0.00 | 0.00 | 0.00 | 40 | 1022.8 |
| 20260902153205 | 81 | 3 | 2.0 | 5.0 | 0.00 | 0.00 | 0.00 | 40 | 1022.9 |
| 20260902152205 | 82 | 323 | 2.0 | 5.0 | 0.00 | 0.00 | 0.00 | 38 | 1023.0 |
| 20260902151705 | 82 | 336 | 2.0 | 6.0 | 0.00 | 0.00 | 0.00 | 38 | 1023.0 |
| 20260902151204 | 83 | 27 | 3.0 | 6.0 | 0.00 | 0.00 | 0.00 | 39 | 1023.1 |
| 20260902150204 | 82 | 303 | 2.0 | 6.0 | 0.00 | 0.00 | 0.00 | 38 | 1023.1 |
| 20260902144705 | 82 | 334 | 3.0 | 12.0 | 0.00 | 0.00 | 0.00 | 36 | 1023.1 |
| 20260902144204 | 82 | 290 | 5.0 | 10.0 | 0.00 | 0.00 | 0.00 | 37 | 1023.3 |
| 20260902143705 | 82 | 280 | 6.0 | 10.0 | 0.00 | 0.00 | 0.00 | 37 | 1023.4 |
| 20260902143205 | 82 | 293 | 5.0 | 10.0 | 0.00 | 0.00 | 0.00 | 36 | 1023.3 |
| 20260902141705 | 83 | 289 | 6.0 | 10.0 | 0.00 | 0.00 | 0.00 | 37 | 1023.6 |
| 20260902141205 | 83 | 279 | 5.0 | 9.0 | 0.00 | 0.00 | 0.00 | 36 | 1023.7 |
| 20260902140704 | 83 | 296 | 6.0 | 14.0 | 0.00 | 0.00 | 0.00 | 37 | 1023.6 |
| 20260902140205 | 83 | 289 | 7.0 | 13.0 | 0.00 | 0.00 | 0.00 | 36 | 1023.7 |
| 20260902135704 | 83 | 314 | 3.0 | 7.0 | 0.00 | 0.00 | 0.00 | 36 | 1023.8 |
| 20260902135205 | 83 | 356 | 2.0 | 6.0 | 0.00 | 0.00 | 0.00 | 37 | 1023.8 |
| 20260902134704 | 83 | 270 | 6.0 | 12.0 | 0.00 | 0.00 | 0.00 | 36 | 1023.8 |
| 20260902134204 | 83 | 280 | 7.0 | 12.0 | 0.00 | 0.00 | 0.00 | 36 | 1023.8 |
| 20260902132704 | 84 | 298 | 4.0 | 12.0 | 0.00 | 0.00 | 0.00 | 36 | 1023.8 |
| 20260902132205 | 84 | 306 | 7.0 | 13.0 | 0.00 | 0.00 | 0.00 | 35 | 1023.7 |
| 20260902131705 | 84 | 324 | 5.0 | 8.0 | 0.00 | 0.00 | 0.00 | 36 | 1023.9 |
| 20260902131206 | 84 | 283 | 5.0 | 7.0 | 0.00 | 0.00 | 0.00 | 36 | 1023.9 |
| 20260902130704 | 84 | 308 | 6.0 | 13.0 | 0.00 | 0.00 | 0.00 | 36 | 1024.1 |
| 20260902125704 | 84 | 294 | 9.0 | 13.0 | 0.00 | 0.00 | 0.00 | 36 | 1024.0 |
| 20260902125204 | 84 | 285 | 7.0 | 13.0 | 0.00 | 0.00 | 0.00 | 36 | 1024.0 |
| 20260902124705 | 83 | 271 | 3.0 | 12.0 | 0.00 | 0.00 | 0.00 | 37 | 1024.1 |
| 20260902123704 | 82 | 295 | 7.0 | 15.0 | 0.00 | 0.00 | 0.00 | 37 | 1024.1 |
| 20260902123205 | 82 | 279 | 5.0 | 8.0 | 0.00 | 0.00 | 0.00 | 38 | 1024.1 |
| 20260902122706 | 83 | 284 | 5.0 | 8.0 | 0.00 | 0.00 | 0.00 | 37 | 1024.4 |
| 20260902122204 | 83 | 287 | 5.0 | 10.0 | 0.00 | 0.00 | 0.00 | 37 | 1024.4 |
| 20260902121704 | 83 | 311 | 3.0 | 7.0 | 0.00 | 0.00 | 0.00 | 39 | 1024.5 |
| 20260902121204 | 82 | 283 | 6.0 | 12.0 | 0.00 | 0.00 | 0.00 | 41 | 1024.7 |
| 20260902120706 | 82 | 310 | 5.0 | 10.0 | 0.00 | 0.00 | 0.00 | 40 | 1024.6 |
| 20260902120204 | 82 | 273 | 3.0 | 5.0 | 0.00 | 0.00 | 0.00 | 40 | 1024.4 |
| 20260902115704 | 82 | 158 | 3.0 | 7.0 | 0.00 | 0.00 | 0.00 | 40 | 1024.4 |
| 20260902114704 | 81 | 242 | 2.0 | 5.0 | 0.00 | 0.00 | 0.00 | 41 | 1024.8 |
| 20260902114205 | 81 | 279 | 3.0 | 7.0 | 0.00 | 0.00 | 0.00 | 41 | 1024.8 |
| 20260902113206 | 82 | 250 | 5.0 | 13.0 | 0.00 | 0.00 | 0.00 | 39 | 1024.9 |
| 20260902112704 | 83 | 240 | 9.0 | 14.0 | 0.00 | 0.00 | 0.00 | 38 | 1024.9 |
| 20260902111705 | 83 | 249 | 3.0 | 9.0 | 0.00 | 0.00 | 0.00 | 38 | 1024.9 |
| 20260902110704 | 82 | 271 | 5.0 | 13.0 | 0.00 | 0.00 | 0.00 | 40 | 1024.9 |
| 20260902110204 | 82 | 188 | 4.0 | 9.0 | 0.00 | 0.00 | 0.00 | 41 | 1024.9 |
| 20260902105705 | 82 | 263 | 5.0 | 12.0 | 0.00 | 0.00 | 0.00 | 40 | 1025.1 |
| 20260902105205 | 82 | 219 | 7.0 | 10.0 | 0.00 | 0.00 | 0.00 | 40 | 1025.2 |
| 20260902103705 | 82 | 250 | 4.0 | 9.0 | 0.00 | 0.00 | 0.00 | 44 | 1025.3 |
| 20260902102706 | 81 | 297 | 3.0 | 7.0 | 0.00 | 0.00 | 0.00 | 45 | 1025.4 |
| 20260902102204 | 81 | 354 | 4.0 | 7.0 | 0.00 | 0.00 | 0.00 | 44 | 1025.5 |
| 20260902101704 | 81 | 354 | 3.0 | 6.0 | 0.00 | 0.00 | 0.00 | 47 | 1025.7 |
| 20260902101205 | 81 | 26 | 3.0 | 7.0 | 0.00 | 0.00 | 0.00 | 48 | 1025.6 |
| 20260902100704 | 80 | 349 | 3.0 | 8.0 | 0.00 | 0.00 | 0.00 | 49 | 1025.7 |
| 20260902100205 | 80 | 10 | 4.0 | 8.0 | 0.00 | 0.00 | 0.00 | 49 | 1025.7 |
| 20260902095705 | 79 | 7 | 3.0 | 5.0 | 0.00 | 0.00 | 0.00 | 50 | 1025.9 |
| 20260902094706 | 78 | 294 | 1.0 | 5.0 | 0.00 | 0.00 | 0.00 | 49 | 1025.9 |
| 20260902094206 | 78 | 213 | 2.0 | 5.0 | 0.00 | 0.00 | 0.00 | 47 | 1026.0 |
| 20260902093705 | 78 | 199 | 2.0 | 3.0 | 0.00 | 0.00 | 0.00 | 49 | 1026.2 |
| 20260902093204 | 77 | 348 | 2.0 | 5.0 | 0.00 | 0.00 | 0.00 | 52 | 1026.0 |
| 20260902092704 | 77 | 315 | 2.0 | 5.0 | 0.00 | 0.00 | 0.00 | 53 | 1026.1 |
| 20260902092204 | 76 | 147 | 2.0 | 3.0 | 0.00 | 0.00 | 0.00 | 53 | 1026.2 |
| 20260902091704 | 76 | 342 | 2.0 | 5.0 | 0.00 | 0.00 | 0.00 | 54 | 1026.3 |
| 20260902091204 | 75 | 114 | 2.0 | 3.0 | 0.00 | 0.00 | 0.00 | 57 | 1026.3 |
| 20260902090706 | 75 | 11 | 1.0 | 3.0 | 0.00 | 0.00 | 0.00 | 57 | 1026.3 |
| 20260902090204 | 74 | 244 | 2.0 | 3.0 | 0.00 | 0.00 | 0.00 | 57 | 1026.4 |
| 20260902085206 | 74 | 200 | 1.0 | 5.0 | 0.00 | 0.00 | 0.00 | 59 | 1026.3 |
| 20260902084705 | 73 | 132 | 1.0 | 3.0 | 0.00 | 0.00 | 0.00 | 60 | 1026.6 |
| 20260902084204 | 73 | 222 | 1.0 | 2.0 | 0.00 | 0.00 | 0.00 | 60 | 1026.6 |
| 20260902083706 | 72 | 167 | 1.0 | 3.0 | 0.00 | 0.00 | 0.00 | 62 | 1026.8 |
| 20260902083204 | 71 | 260 | 0.0 | 2.0 | 0.00 | 0.00 | 0.00 | 63 | 1026.5 |
| 20260902082204 | 70 | 228 | 1.0 | 2.0 | 0.00 | 0.00 | 0.00 | 66 | 1026.5 |
| 20260902081205 | 68 | 116 | 2.0 | 3.0 | 0.00 | 0.00 | 0.00 | 71 | 1026.8 |
| 20260902080705 | 67 | 287 | 2.0 | 3.0 | 0.00 | 0.00 | 0.00 | 72 | 1026.7 |
| 20260902080204 | 67 | 244 | 2.0 | 3.0 | 0.00 | 0.00 | 0.00 | 72 | 1027.0 |
| 20260902074705 | 64 | 234 | 1.0 | 3.0 | 0.00 | 0.00 | 0.00 | 76 | 1026.7 |
| 20260902074206 | 63 | 248 | 1.0 | 2.0 | 0.00 | 0.00 | 0.00 | 77 | 1026.8 |
| 20260902073704 | 63 | 8 | 1.0 | 2.0 | 0.00 | 0.00 | 0.00 | 78 | 1026.7 |
| 20260902073204 | 63 | 323 | 1.0 | 2.0 | 0.00 | 0.00 | 0.00 | 78 | 1026.5 |
| 20260902072705 | 63 | 309 | 1.0 | 2.0 | 0.00 | 0.00 | 0.00 | 79 | 1026.8 |
| 20260902072205 | 63 | 188 | 0.0 | 2.0 | 0.00 | 0.00 | 0.00 | 79 | 1026.6 |
| 20260902071705 | 62 | 3 | 1.0 | 2.0 | 0.00 | 0.00 | 0.00 | 80 | 1026.8 |
| 20260902071204 | 62 | 103 | 1.0 | 2.0 | 0.00 | 0.00 | 0.00 | 80 | 1026.5 |
| 20260902070705 | 62 | 348 | 2.0 | 3.0 | 0.00 | 0.00 | 0.00 | 81 | 1026.4 |
| 20260902070204 | 62 | 350 | 1.0 | 2.0 | 0.00 | 0.00 | 0.00 | 82 | 1026.6 |
| 20260902065706 | 61 | 184 | 0.0 | 2.0 | 0.00 | 0.00 | 0.00 | 83 | 1026.6 |
| 20260902065204 | 61 | 94 | 1.0 | 3.0 | 0.00 | 0.00 | 0.00 | 83 | 1026.3 |
| 20260902064705 | 60 | 350 | 1.0 | 2.0 | 0.00 | 0.00 | 0.00 | 83 | 1026.4 |
| 20260902064205 | 60 | 115 | 0.0 | 2.0 | 0.00 | 0.00 | 0.00 | 84 | 1026.3 |
| 20260902063705 | 60 | 119 | 1.0 | 2.0 | 0.00 | 0.00 | 0.00 | 85 | 1026.4 |
| 20260902062704 | 59 | 9 | 1.0 | 3.0 | 0.00 | 0.00 | 0.00 | 86 | 1026.3 |
| 20260902062205 | 58 | 56 | 1.0 | 2.0 | 0.00 | 0.00 | 0.00 | 86 | 1026.3 |
| 20260902061704 | 58 | 13 | 0.0 | 2.0 | 0.00 | 0.00 | 0.00 | 86 | 1026.6 |
| 20260902061204 | 57 | 346 | 1.0 | 2.0 | 0.00 | 0.00 | 0.00 | 86 | 1026.4 |
| 20260902060204 | 57 | 0 | 2.0 | 2.0 | 0.00 | 0.00 | 0.00 | 86 | 1026.2 |
| 20260902055204 | 56 | 275 | 1.0 | 2.0 | 0.00 | 0.00 | 0.00 | 87 | 1026.4 |
| 20260902054706 | 56 | 285 | 1.0 | 3.0 | 0.00 | 0.00 | 0.00 | 87 | 1026.3 |
| 20260902054204 | 56 | 250 | 1.0 | 2.0 | 0.00 | 0.00 | 0.00 | 87 | 1026.4 |
| 20260902053204 | 55 | 188 | 1.0 | 2.0 | 0.00 | 0.00 | 0.00 | 88 | 1026.2 |
| 20260902052706 | 55 | 198 | 0.0 | 2.0 | 0.00 | 0.00 | 0.00 | 87 | 1026.4 |
| 20260902051704 | 54 | 34 | 1.0 | 2.0 | 0.00 | 0.00 | 0.00 | 87 | 1026.3 |
| 20260902051205 | 54 | 302 | 0.0 | 2.0 | 0.00 | 0.00 | 0.00 | 87 | 1026.1 |
| 20260902050704 | 54 | 254 | 1.0 | 2.0 | 0.00 | 0.00 | 0.00 | 87 | 1026.2 |
| 20260902045706 | 53 | 238 | 1.0 | 1.0 | 0.00 | 0.00 | 0.00 | 87 | 1026.3 |
| 20260902045204 | 53 | 7 | 0.0 | 2.0 | 0.00 | 0.00 | 0.00 | 87 | 1026.3 |
| 20260902044704 | 53 | 61 | 1.0 | 2.0 | 0.00 | 0.00 | 0.00 | 86 | 1026.3 |
| 20260902044204 | 53 | 25 | 1.0 | 2.0 | 0.00 | 0.00 | 0.00 | 86 | 1026.1 |
| 20260902043704 | 53 | 274 | 1.0 | 3.0 | 0.00 | 0.00 | 0.00 | 86 | 1026.1 |
| 20260902043204 | 53 | 277 | 2.0 | 2.0 | 0.00 | 0.00 | 0.00 | 86 | 1026.2 |
| 20260902042706 | 53 | 306 | 1.0 | 2.0 | 0.00 | 0.00 | 0.00 | 86 | 1026.1 |
| 20260902040705 | 53 | 249 | 1.0 | 2.0 | 0.00 | 0.00 | 0.00 | 86 | 1025.8 |
| 20260902040204 | 53 | 247 | 1.0 | 2.0 | 0.00 | 0.00 | 0.00 | 86 | 1025.9 |
| 20260902035705 | 53 | 255 | 1.0 | 2.0 | 0.00 | 0.00 | 0.00 | 86 | 1025.9 |
| 20260902034204 | 53 | 272 | 1.0 | 2.0 | 0.00 | 0.00 | 0.00 | 86 | 1025.9 |
| 20260902033704 | 53 | 282 | 1.0 | 2.0 | 0.00 | 0.00 | 0.00 | 86 | 1026.0 |
| 20260902032704 | 53 | 262 | 1.0 | 2.0 | 0.00 | 0.00 | 0.00 | 85 | 1025.7 |
| 20260902032204 | 53 | 274 | 1.0 | 2.0 | 0.00 | 0.00 | 0.00 | 85 | 1025.6 |
| 20260902031704 | 53 | 273 | 1.0 | 2.0 | 0.00 | 0.00 | 0.00 | 85 | 1025.7 |
| 20260902031204 | 53 | 258 | 1.0 | 2.0 | 0.00 | 0.00 | 0.00 | 85 | 1025.6 |
| 20260902030704 | 53 | 285 | 2.0 | 2.0 | 0.00 | 0.00 | 0.00 | 85 | 1025.6 |
| 20260902030206 | 53 | 244 | 0.0 | 2.0 | 0.00 | 0.00 | 0.00 | 85 | 1025.6 |
| 20260902025706 | 53 | 255 | 1.0 | 2.0 | 0.00 | 0.00 | 0.00 | 85 | 1025.8 |
| 20260902024704 | 53 | 271 | 1.0 | 2.0 | 0.00 | 0.00 | 0.00 | 85 | 1025.6 |
| 20260902023704 | 53 | 275 | 1.0 | 2.0 | 0.00 | 0.00 | 0.00 | 84 | 1025.7 |
| 20260902023204 | 53 | 21 | 0.0 | 2.0 | 0.00 | 0.00 | 0.00 | 84 | 1025.5 |
| 20260902022705 | 53 | 307 | 1.0 | 2.0 | 0.00 | 0.00 | 0.00 | 84 | 1025.7 |
| 20260902022206 | 53 | 276 | 1.0 | 2.0 | 0.00 | 0.00 | 0.00 | 84 | 1025.8 |
| 20260902021704 | 53 | 242 | 2.0 | 3.0 | 0.00 | 0.00 | 0.00 | 84 | 1025.8 |
| 20260902021204 | 53 | 266 | 2.0 | 3.0 | 0.00 | 0.00 | 0.00 | 84 | 1025.8 |
| 20260902020706 | 53 | 287 | 0.0 | 1.0 | 0.00 | 0.00 | 0.00 | 84 | 1025.6 |
| 20260902020205 | 53 | 266 | 1.0 | 1.0 | 0.00 | 0.00 | 0.00 | 84 | 1025.9 |
| 20260902015205 | 53 | 303 | 1.0 | 2.0 | 0.00 | 0.00 | 0.00 | 83 | 1025.8 |
| 20260902013704 | 54 | 265 | 2.0 | 3.0 | 0.00 | 0.00 | 0.00 | 84 | 1026.0 |
| 20260902011704 | 53 | 345 | 1.0 | 2.0 | 0.00 | 0.00 | 0.00 | 83 | 1025.5 |
| 20260902011207 | 53 | 12 | 1.0 | 1.0 | 0.00 | 0.00 | 0.00 | 82 | 1025.7 |
| 20260902010704 | 54 | 243 | 1.0 | 2.0 | 0.00 | 0.00 | 0.00 | 82 | 1025.6 |
| 20260902010204 | 54 | 257 | 2.0 | 2.0 | 0.00 | 0.00 | 0.00 | 82 | 1025.6 |
| 20260902005704 | 54 | 265 | 1.0 | 2.0 | 0.00 | 0.00 | 0.00 | 82 | 1025.7 |
| 20260902005204 | 54 | 305 | 1.0 | 2.0 | 0.00 | 0.00 | 0.00 | 82 | 1025.9 |
| 20260902004704 | 53 | 322 | 1.0 | 2.0 | 0.00 | 0.00 | 0.00 | 82 | 1025.9 |
| 20260902004205 | 54 | 323 | 1.0 | 2.0 | 0.00 | 0.00 | 0.00 | 82 | 1025.7 |
| 20260902003704 | 54 | 303 | 0.0 | 1.0 | 0.00 | 0.00 | 0.00 | 82 | 1025.6 |
| 20260902003205 | 54 | 268 | 1.0 | 2.0 | 0.00 | 0.00 | 0.00 | 82 | 1025.9 |
| 20260902002705 | 54 | 262 | 2.0 | 2.0 | 0.00 | 0.00 | 0.00 | 82 | 1026.0 |
| 20260902001705 | 54 | 252 | 2.0 | 2.0 | 0.00 | 0.00 | 0.00 | 82 | 1026.0 |
| 20260902001204 | 54 | 275 | 1.0 | 2.0 | 0.00 | 0.00 | 0.00 | 81 | 1026.0 |
| 20260902000204 | 54 | 346 | 2.0 | 2.0 | 0.00 | 0.00 | 0.00 | 81 | 1025.8 |
| 20260901235704 | 54 | 337 | 2.0 | 2.0 | 0.00 | 0.00 | 0.00 | 81 | 1025.8 |
| 20260901235205 | 54 | 6 | 1.0 | 2.0 | 0.00 | 0.00 | 0.00 | 81 | 1025.8 |
| 20260901233704 | 54 | 354 | 2.0 | 2.0 | 0.00 | 0.00 | 0.00 | 80 | 1026.1 |
| 20260901232703 | 54 | 280 | 1.0 | 2.0 | 0.00 | 0.00 | 0.00 | 79 | 1025.7 |
| 20260901231204 | 54 | 328 | 1.0 | 2.0 | 0.00 | 0.00 | 0.00 | 79 | 1025.7 |
| 20260901230704 | 54 | 341 | 1.0 | 2.0 | 0.00 | 0.00 | 0.00 | 78 | 1025.9 |
| 20260901230206 | 54 | 276 | 2.0 | 2.0 | 0.00 | 0.00 | 0.00 | 78 | 1025.8 |
| 20260901225704 | 54 | 275 | 1.0 | 2.0 | 0.00 | 0.00 | 0.00 | 78 | 1025.8 |
| 20260901225204 | 54 | 297 | 2.0 | 3.0 | 0.00 | 0.00 | 0.00 | 78 | 1025.9 |
| 20260901224706 | 54 | 271 | 2.0 | 2.0 | 0.00 | 0.00 | 0.00 | 78 | 1025.9 |
| 20260901224204 | 54 | 295 | 2.0 | 2.0 | 0.00 | 0.00 | 0.00 | 78 | 1025.8 |
| 20260901223704 | 55 | 264 | 1.0 | 2.0 | 0.00 | 0.00 | 0.00 | 77 | 1025.8 |
| 20260901222704 | 55 | 256 | 1.0 | 2.0 | 0.00 | 0.00 | 0.00 | 77 | 1025.9 |
| 20260901222205 | 55 | 241 | 2.0 | 2.0 | 0.00 | 0.00 | 0.00 | 77 | 1025.7 |
| 20260901221705 | 55 | 278 | 1.0 | 2.0 | 0.00 | 0.00 | 0.00 | 77 | 1025.8 |
| 20260901220704 | 55 | 275 | 2.0 | 2.0 | 0.00 | 0.00 | 0.00 | 76 | 1025.8 |
| 20260901220206 | 55 | 273 | 2.0 | 2.0 | 0.00 | 0.00 | 0.00 | 76 | 1025.6 |
| 20260901215704 | 56 | 275 | 1.0 | 2.0 | 0.00 | 0.00 | 0.00 | 76 | 1025.6 |
| 20260901215206 | 56 | 290 | 2.0 | 2.0 | 0.00 | 0.00 | 0.00 | 76 | 1025.7 |
| 20260901214206 | 56 | 280 | 2.0 | 3.0 | 0.00 | 0.00 | 0.00 | 75 | 1025.7 |
| 20260901213704 | 56 | 271 | 1.0 | 2.0 | 0.00 | 0.00 | 0.00 | 75 | 1025.7 |
| 20260901212704 | 56 | 310 | 1.0 | 2.0 | 0.00 | 0.00 | 0.00 | 74 | 1025.6 |
| 20260901211704 | 57 | 289 | 2.0 | 3.0 | 0.00 | 0.00 | 0.00 | 74 | 1025.5 |
| 20260901211206 | 57 | 266 | 2.0 | 3.0 | 0.00 | 0.00 | 0.00 | 73 | 1025.4 |
| 20260901210704 | 57 | 279 | 1.0 | 3.0 | 0.00 | 0.00 | 0.00 | 73 | 1025.6 |
| 20260901210203 | 57 | 333 | 1.0 | 2.0 | 0.00 | 0.00 | 0.00 | 72 | 1025.5 |
| 20260901205704 | 57 | 281 | 1.0 | 3.0 | 0.00 | 0.00 | 0.00 | 72 | 1025.5 |
| 20260901204204 | 58 | 331 | 2.0 | 3.0 | 0.00 | 0.00 | 0.00 | 71 | 1025.4 |
| 20260901203706 | 58 | 282 | 1.0 | 3.0 | 0.00 | 0.00 | 0.00 | 71 | 1025.5 |
| 20260901203204 | 58 | 269 | 2.0 | 3.0 | 0.00 | 0.00 | 0.00 | 72 | 1025.4 |
| 20260901202704 | 58 | 266 | 2.0 | 2.0 | 0.00 | 0.00 | 0.00 | 71 | 1025.3 |
| 20260901201204 | 59 | 343 | 2.0 | 3.0 | 0.00 | 0.00 | 0.00 | 70 | 1025.4 |
| 20260901200704 | 59 | 324 | 2.0 | 2.0 | 0.00 | 0.00 | 0.00 | 70 | 1025.4 |
| 20260901200204 | 59 | 278 | 1.0 | 2.0 | 0.00 | 0.00 | 0.00 | 69 | 1025.2 |
| 20260901195204 | 60 | 300 | 1.0 | 2.0 | 0.00 | 0.00 | 0.00 | 68 | 1025.2 |
| 20260901194704 | 60 | 271 | 1.0 | 2.0 | 0.00 | 0.00 | 0.00 | 68 | 1025.3 |
| 20260901194204 | 60 | 350 | 1.0 | 2.0 | 0.00 | 0.00 | 0.00 | 68 | 1025.3 |
| 20260901192704 | 61 | 345 | 2.0 | 3.0 | 0.00 | 0.00 | 0.00 | 65 | 1025.1 |
| 20260901192204 | 61 | 315 | 1.0 | 3.0 | 0.00 | 0.00 | 0.00 | 65 | 1025.1 |
| 20260901191706 | 62 | 277 | 2.0 | 3.0 | 0.00 | 0.00 | 0.00 | 66 | 1025.0 |
| 20260901191205 | 62 | 253 | 1.0 | 3.0 | 0.00 | 0.00 | 0.00 | 65 | 1024.9 |
| 20260901190706 | 62 | 277 | 1.0 | 2.0 | 0.00 | 0.00 | 0.00 | 65 | 1025.0 |
| 20260901185706 | 63 | 342 | 1.0 | 2.0 | 0.00 | 0.00 | 0.00 | 65 | 1025.0 |
| 20260901185205 | 63 | 295 | 1.0 | 2.0 | 0.00 | 0.00 | 0.00 | 64 | 1024.9 |
| 20260901184707 | 64 | 283 | 1.0 | 3.0 | 0.00 | 0.00 | 0.00 | 64 | 1024.9 |
| 20260901183706 | 64 | 338 | 1.0 | 3.0 | 0.00 | 0.00 | 0.00 | 61 | 1024.7 |
| 20260901183206 | 65 | 337 | 1.0 | 2.0 | 0.00 | 0.00 | 0.00 | 60 | 1024.6 |
| 20260901182206 | 65 | 289 | 1.0 | 2.0 | 0.00 | 0.00 | 0.00 | 59 | 1024.6 |
| 20260901181706 | 66 | 278 | 1.0 | 2.0 | 0.00 | 0.00 | 0.00 | 59 | 1024.6 |
| 20260901180706 | 67 | 320 | 1.0 | 2.0 | 0.00 | 0.00 | 0.00 | 58 | 1024.4 |
| 20260901180206 | 67 | 0 | 1.0 | 3.0 | 0.00 | 0.00 | 0.00 | 58 | 1024.4 |
| 20260901175706 | 68 | 322 | 1.0 | 2.0 | 0.00 | 0.00 | 0.00 | 57 | 1024.3 |
| 20260901175205 | 68 | 303 | 1.0 | 2.0 | 0.00 | 0.00 | 0.00 | 56 | 1024.1 |
| 20260901174705 | 69 | 324 | 1.0 | 2.0 | 0.00 | 0.00 | 0.00 | 55 | 1024.2 |
| 20260901174205 | 69 | 317 | 1.0 | 2.0 | 0.00 | 0.00 | 0.00 | 54 | 1023.9 |
| 20260901173707 | 69 | 306 | 1.0 | 1.0 | 0.00 | 0.00 | 0.00 | 52 | 1024.0 |
| 20260901172706 | 70 | 311 | 0.0 | 1.0 | 0.00 | 0.00 | 0.00 | 50 | 1023.9 |
| 20260901172206 | 71 | 306 | 0.0 | 2.0 | 0.00 | 0.00 | 0.00 | 49 | 1023.9 |